User: anonymous   Login
Location: Starry Hill Observatory
(46.8582°N, 122.3590°W)
Time: 15:42:47
(UTC-08:00)
Language:

Cosmos 1300 Rocket - Orbit

View from above orbital plane
View from above orbital plane
View from above satellite
View from above satellite

Ground track
Ground track

The orbit data is extracted from the following two-line orbital elements,

1 12786U 81082B   18016.84400550 +.00000071 +00000-0 +55163-5 0  9998
2 12786 082.4903 126.3440 0016025 269.5569 090.3810 14.84714580966518
Epoch (UTC): 16 January 2018 20:15:22
Eccentricity: 0.0016025
inclination: 82.4903°
perigee height: 603 km
apogee height: 625 km
right ascension of ascending node: 126.3440°
argument of perigee: 269.5569°
revolutions per day: 14.84714580
mean anomaly at epoch: 90.3810°
orbit number at epoch: 96651

The dashed part of the orbit path shows where the satellite is in the earth's shadow,  

DLR